Location: Basse Occidentale du Courleau
(48.3833°N, 4.8333°W)
Time: 09:26:32
(UTC+00:00)

Alouette 2 Rocket - Pass Details

Date: 05 July 2020
Orbit: 502 x 2650 km, 79.8° (Epoch: 08 August)

Event Time Altitude Azimuth Distance (km) Brightness Sun altitude
Rises 21:53:22 0° 341° (NNW) 2,639 8.5 -11.4°
Reaches altitude 10° 21:55:19 10° 335° (NNW) 1,808 7.4 -11.5°
Maximum altitude 21:59:00 51° 259° (W) 793 4.3 -11.9°
Drops below altitude 10° 22:03:53 10° 185° (S) 2,388 6.1 -12.3°
Enters shadow 22:03:57 10° 184° (S) 2,418 6.1 -12.3°
